User: anonymous   Login
Location: Smithers
(54.7670°N, 127.1670°W)
Time: 06:37:38
(UTC-07:00)
Language:

ERBS - Orbit

View from above orbital plane
View from above orbital plane
View from above satellite
View from above satellite

Ground track
Ground track

The orbit data is extracted from the following two-line orbital elements,

1 15354U 84108B   17082.50703933 +.00004381 +00000-0 +10666-3 0  9995
2 15354 057.0081 147.1282 0007393 327.7365 032.3237 15.43053692784705
Epoch (UTC): 23 March 2017 12:10:08
Eccentricity: 0.0007393
inclination: 57.0081°
perigee height: 432 km
apogee height: 442 km
right ascension of ascending node: 147.1282°
argument of perigee: 327.7365°
revolutions per day: 15.43053692
mean anomaly at epoch: 32.3237°
orbit number at epoch: 78470

The dashed part of the orbit path shows where the satellite is in the earth's shadow,  

DLR